Weather History for Philip, SD

Change the Weather History Date:

Wednesday, October 5, 2011

  Actual Average Record
Temperature  
Mean Temperature 77 °F 53 °F  
Max Temperature 87 °F 68 °F 93 °F (2010)
Min Temperature 66 °F 38 °F 18 °F (1952)
Cooling Degree Days 12 0  
Month to date cooling degree days 34 0  
Year to date cooling degree days 835 814  
Growing Degree Days 26 (Base 50)    
Moisture  
Dew Point 39 °F    
Average Humidity 33    
Maximum Humidity 47    
Minimum Humidity 19    
Precipitation  
Precipitation 0.00 in 0.05 in 0.77 in (1981)
Month to date precipitation 0.00 0.27  
Year to date precipitation 15.08 15.14  
Sea Level Pressure  
Sea Level Pressure 29.61 in    
Wind  
Wind Speed 21 mph (SSE)    
Max Wind Speed 37 mph    
Max Gust Speed 46 mph    
Visibility 10 miles    
Events      
T = Trace of Precipitation, MM = Missing Value Source: NWS Daily Summary

Daily Weather History Graph

Daily Weather History Graph

Search for Another Location

Airport:

Trip Planner

Search our weather history database for the weather conditions in past years. The results will help you decide how hot, cold, wet, or windy it might be!

Date:

Astronomy

Oct. 05, 2011 Rise Set
Actual Time 6:48 AM MDT 6:20 PM MDT
Civil Twilight 6:19 AM MDT 6:49 PM MDT
Nautical Twilight 5:46 AM MDT 7:22 PM MDT
Astronomical Twilight 5:12 AM MDT 7:56 PM MDT
Moon 3:12 PM MDT (10/5) 12:24 AM MDT (10/5)
Length of Visible Light 12h 29m
Length of Day
11h 31m
Waxing Gibbous, 67% of the Moon is Illuminated
Oct 5
Waxing Gibbous
Oct 11
Full
Oct 19
Last Quarter
Oct 26
New
Nov 2
First Quarter

Hourly Weather History & Observations

Time (MDT) Temp. Dew Point Humidity Pressure Visibility Wind Dir Wind Speed Gust Speed Precip Events Conditions
12:55 AM 75.9 °F 30.9 °F 19% 29.65 in 10.0 mi South 20.7 mph 31.1 mph N/A   Clear
1:55 AM 73.0 °F 32.0 °F 22% 29.66 in 10.0 mi South 20.7 mph 29.9 mph N/A   Clear
2:55 AM 70.0 °F 33.1 °F 26% 29.65 in 10.0 mi South 15.0 mph - N/A   Clear
3:55 AM 69.1 °F 33.1 °F 26% 29.64 in 10.0 mi South 19.6 mph - N/A   Clear
4:55 AM 68.0 °F 34.0 °F 28% 29.65 in 10.0 mi South 20.7 mph - N/A   Clear
5:55 AM 66.9 °F 35.1 °F 31% 29.65 in 10.0 mi South 24.2 mph 29.9 mph N/A   Clear
6:55 AM 66.0 °F 36.0 °F 33% 29.67 in 10.0 mi South 17.3 mph - N/A   Clear
7:55 AM 68.0 °F 37.0 °F 32% 29.68 in 10.0 mi South 17.3 mph 24.2 mph N/A   Clear
8:55 AM 70.0 °F 37.9 °F 31% 29.70 in 10.0 mi South 20.7 mph 24.2 mph N/A   Clear
9:55 AM 72.0 °F 39.0 °F 30% 29.69 in 10.0 mi South 17.3 mph 26.5 mph N/A   Clear
10:55 AM 77.0 °F 42.1 °F 29% 29.67 in 10.0 mi South 19.6 mph 27.6 mph N/A   Clear
11:55 AM 82.0 °F 44.1 °F 26% 29.64 in 10.0 mi SSE 21.9 mph 35.7 mph N/A   Clear
12:55 PM 84.0 °F 44.1 °F 25% 29.60 in 10.0 mi SSE 19.6 mph 34.5 mph N/A   Clear
1:55 PM 86.0 °F 44.1 °F 23% 29.57 in 10.0 mi South 28.8 mph 43.7 mph N/A   Clear
2:55 PM 86.0 °F 44.1 °F 23% 29.56 in 10.0 mi South 32.2 mph 43.7 mph N/A   Clear
3:55 PM 84.9 °F 44.1 °F 24% 29.56 in 10.0 mi South 26.5 mph 39.1 mph N/A   Clear
4:55 PM 82.9 °F 44.1 °F 25% 29.56 in 10.0 mi South 28.8 mph 41.4 mph N/A   Partly Cloudy
5:55 PM 80.1 °F 41.0 °F 25% 29.55 in 10.0 mi SSE 19.6 mph 29.9 mph N/A   Clear
6:55 PM 77.0 °F 39.0 °F 25% 29.57 in 10.0 mi SSE 16.1 mph 23.0 mph N/A   Clear
7:55 PM 73.9 °F 37.9 °F 27% 29.57 in 10.0 mi SE 13.8 mph - N/A   Clear
8:55 PM 73.9 °F 39.0 °F 28% 29.57 in 10.0 mi SSE 17.3 mph 25.3 mph N/A   Clear
9:55 PM 73.0 °F 42.1 °F 33% 29.57 in 10.0 mi SSE 24.2 mph 34.5 mph N/A   Clear
10:55 PM 72.0 °F 46.0 °F 40% 29.56 in 10.0 mi SSE 17.3 mph 31.1 mph N/A   Clear
11:55 PM 70.0 °F 48.0 °F 46% 29.55 in 10.0 mi SSE 19.6 mph 26.5 mph N/A   Clear